Regional Weather Roundup
Issued by NWS

Home | Current Version | Previous Version | Text Only | Print | Product List | Glossary Off
Versions: 1 2 3 4 5 6 7 8 9 10 11 12 13 14 15 16 17 18 19 20 21 22 23 24 25 26 27 28 29 30 31 32 33 34 35 36 37 38 39 40 41 42 43 44 45 46 47 48 49 50

000
ASUS43 KDMX 021107
RWRIA

WEATHER ROUNDUP FOR IOWA
NATIONAL WEATHER SERVICE DES MOINES IA
600 AM CDT WED SEP 02 2015

NOTE: "FAIR" INDICATES FEW OR NO CLOUDS BELOW 12,000 FEET WITH NO
SIGNIFICANT WEATHER AND/OR OBSTRUCTIONS TO VISIBILITY.

* - THESE STATIONS ARE NOT NWS STATIONS...THUS NOT UNDER NWS
QUALITY CONTROL.  THEY ALSO DO NOT REPORT WEATHER SUCH
AS PRECIPITATION OR FOG.

IAZ001>003-012>014-020>022-031>034-043>046-021200-
   NORTHWEST IOWA

CITY           SKY/WX    TMP DP  RH WIND       PRES   REMARKS
CARROLL *      PTCLDY    72  68  88 S14G21    29.94R
CHEROKEE *     CLEAR     70  68  94 S7        29.90S
DENISON *      CLEAR     72  68  88 S16G24    29.89F
LE MARS *      CLEAR     70  68  94 S7        29.88S
ORANGE CITY *  CLEAR     68  66  94 S6        29.89R
SHELDON *      CLEAR     68  66  94 SE7       29.88S
SIOUX CITY     CLEAR     70  64  81 SE8       29.87S
SPENCER        CLEAR     70  66  87 S10       29.91S
STORM LAKE *   CLEAR     70  68  94 S12       29.93S
$$

IAZ055>058-069>071-079>083-090>094-021200-
   SOUTHWEST IOWA

CITY           SKY/WX    TMP DP  RH WIND       PRES   REMARKS
ATLANTIC *     LGT RAIN  72  68  88 SE13G21   29.94S
AUDUBON *      CLEAR     70  66  88 S10       29.95F
CLARINDA *     CLOUDY    72  70  94 S8        29.98S
COUNCIL BLFS * PTCLDY    72  68  88 S13       29.92S
CRESTON *      CLOUDY    70  66  88 S13       30.01F
LAMONI         LGT RAIN  71  68  90 S5        30.03R FOG
RED OAK *      CLOUDY    72  70  94 S12       29.95S
SHENANDOAH *   MOCLDY    75  70  83 SE10G20   29.94S
$$

IAZ047>049-059>061-072>074-084-021200-
   CENTRAL IOWA

CITY           SKY/WX    TMP DP  RH WIND       PRES   REMARKS
AMES           RAIN      69  68  96 SW8       30.00S FOG
ANKENY *       CLOUDY    70  70 100 S3        30.00S
CHARITON *     RAIN      70  68  94 S7        30.03R
DES MOINES     TSTM      72  67  84 SW9       29.99R
GRINNELL*      CLOUDY    68  66  94 SW7       30.03R
KNOXVILLE *    LGT RAIN  72  66  83 W5        30.00S
MARSHALLTOWN   LGT RAIN  70  68  93 SW7       30.02R FOG
PELLA *        RAIN      72  70  94 SW7       30.02S
PERRY *        CLOUDY    72  68  88 SE9       29.98R
$$

IAZ004>006-015-016-023>025-035-036-021200-
   NORTH CENTRAL IOWA

CITY           SKY/WX    TMP DP  RH WIND       PRES   REMARKS
ALGONA *       CLOUDY    72  68  88 S12       29.94R
CLARION *      CLOUDY    70  66  88 S13G21    29.95F
ESTHERVILLE    CLEAR     68  67  96 S10       29.91S FOG
FORT DODGE *   MOCLDY    72  64  78 S10G18    29.96S
MASON CITY     CLOUDY    70  67  90 SW12      29.96R
FOREST CITY *  CLOUDY    70  64  83 S14       29.94S
IOWA FALLS *   LGT RAIN  70  66  88 S12       29.99F
$$

IAZ007>011-017>019-026>030-037>042-050>054-066-021200-
   NORTHEAST IOWA

CITY           SKY/WX    TMP DP  RH WIND       PRES   REMARKS
CEDAR RAPIDS   CLOUDY    69  69 100 SW3       30.02R FOG
CHARLES CITY * PTCLDY    70  70 100 SW10      29.98R
CLINTON *      CLEAR     70  66  88 S5        30.05R
DECORAH *      CLEAR     72  68  88 S6        29.97F
DUBUQUE        CLEAR     67  66  97 S3        30.03R FOG
MONTICELLO *   CLEAR     68  66  94 S3        30.02R
OELWEIN *        N/A     70  68  94 S7        30.00S
WATERLOO       LGT RAIN  71  67  87 SW8       29.98R
$$

IAZ064-065-067-068-078-021200-
   EAST CENTRAL IOWA

CITY           SKY/WX    TMP DP  RH WIND       PRES   REMARKS
DAVENPORT      CLEAR     70  67  90 S5        30.03R
IOWA CITY      CLOUDY    68  66  93 S3        30.03R
MT. PLEASANT * CLOUDY    72  68  88 S3        30.03R
MUSCATINE *    FOG       66  64  94 CALM      30.04R VSB 3/4
QUAD CITIES    CLEAR     72  66  81 CALM      30.03R
$$

IAZ062-063-075>077-085>089-095>099-021200-
   SOUTHEAST IOWA

CITY           SKY/WX    TMP DP  RH WIND       PRES   REMARKS
BURLINGTON     MOCLDY    69  68  96 SW3       30.03S
FAIRFIELD *    PTCLDY    70  68  94 S5        30.03R
FORT MADISON * CLEAR     72  70  94 S7        30.05R
KEOKUK *       CLEAR     72  68  88 SW7       30.03R
OSKALOOSA *      N/A     68  66  94 S3        30.03R FOG
CENTERVILLE *  PTCLDY    68  66  94 S3        30.05R
OTTUMWA        CLOUDY    70  69  97 S6        30.00R
WASHINGTON *     N/A    N/A N/A N/A MISG        N/A
$$

ABBREVIATIONS USED IN REMARKS
   TC - TEMPERATURES IN CELSIUS
  WCI - WIND CHILL INDEX
   HX - HEAT INDEX
  VSB - VISIBILITY
$$



USA.gov is the U.S. government's official web portal to all federal, state and local government web resources and services.